Regional Weather Roundup
Issued by NWS

Home | Current Version | Previous Version | Graphics & Text | Print | Product List | Glossary On
Versions: 1 2 3 4 5 6 7 8 9 10 11 12 13 14 15 16 17 18 19 20 21 22 23 24 25 26 27 28 29 30 31 32 33 34 35 36 37 38 39 40 41 42 43 44 45 46 47 48 49 50
000
ASUS43 KOAX 291310
RWRNE

WEATHER ROUNDUP FOR NEBRASKA
NATIONAL WEATHER SERVICE OMAHA NE
800 AM CDT MON AUG 29 2016

NOTES: SATELLITE DATA IS BEING USED TO AUGMENT CLOUD COVER ABOVE
       12000 FEET.
       "FAIR" INDICATES FEW OR NO CLOUDS BELOW 12,000 FEET WITH NO
       SIGNIFICANT WEATHER AND/OR OBSTRUCTIONS TO VISIBILITY.

  * THESE STATIONS DO NOT REPORT WEATHER SUCH AS RAIN...SNOW OR FOG.

NEZ001>004-019>022-054>056-291400-
NEBRASKA PANHANDLE

CITY           SKY/WX    TMP DP  RH WIND       PRES   REMARKS
SCOTTSBLUFF    CLEAR     53  50  89 CALM      30.22R
ALLIANCE       CLEAR     50  48  93 CALM      30.21R
CHADRON        CLEAR     55  50  83 SW3       30.18R
KIMBALL        CLEAR     55  52  88 W6        30.27R
SIDNEY         CLEAR     57  51  80 W8        30.25R
$$

NEZ057>060-069>072-079>082-291400-
SOUTHWEST NEBRASKA

CITY           SKY/WX    TMP DP  RH WIND       PRES   REMARKS
NORTH PLATTE   CLOUDY    64  61  90 S6        30.19R
IMPERIAL       PTCLDY    63  61  93 S8        30.22R
LEXINGTON      LGT RAIN  67  64  91 W7        30.17S
MCCOOK         CLOUDY    66  64  93 SW9       30.19R FOG
OGALLALA       CLOUDY    64  61  91 SE3       30.21R
$$

NEZ005>010-023>029-035>040-094-291400-
NORTH CENTRAL NEBRASKA

CITY           SKY/WX    TMP DP  RH WIND       PRES   REMARKS
VALENTINE      CLEAR     63  58  83 SW7       30.17R
AINSWORTH      CLEAR     66  65  96 SW10      30.17R
BROKEN BOW     CLOUDY    66  64  93 S5        30.17R
O`NEILL        MOSUNNY   66  64  91 S9        30.17R
ORD            CLOUDY    64  61  90 SE6       30.17R
THEDFORD       CLEAR     65  64  95 W3        30.20R
$$

NEZ041-046>049-061>064-073>077-083>087-291400-
SOUTH CENTRAL NEBRASKA

CITY           SKY/WX    TMP DP  RH WIND       PRES   REMARKS
GRAND ISLAND   MOSUNNY   65  62  90 SE8       30.20R
AURORA         MOSUNNY   65  65 100 CALM      30.20R
HASTINGS       PTSUNNY   65  63  93 SE5       30.21R
HEBRON         PTSUNNY   66  65  96 CALM      30.18R
HOLDREGE       PTSUNNY   65  63  93 CALM      30.19R
KEARNEY *      CLOUDY    66  63  88 SE3       30.18R
YORK           CLOUDY    66  64  94 CALM      30.19R
$$

NEZ011>018-030>034-042>045-291400-
NORTHEAST NEBRASKA

CITY           SKY/WX    TMP DP  RH WIND       PRES   REMARKS
NORFOLK        CLOUDY    67  65  93 SE5       30.17R
ALBION         CLOUDY    66  63  91 CALM      30.18R
BLAIR          MOSUNNY   69  68  95 S5        30.18R
FREMONT        CLOUDY    70  68  93 SE7       30.18R
TEKAMAH        MOSUNNY   68  66  93 CALM      30.17R
WAYNE          CLOUDY    68  67  96 CALM      30.17R
$$

NEZ050>053-065>068-078-088>093-291400-
SOUTHEAST NEBRASKA

CITY           SKY/WX    TMP DP  RH WIND       PRES   REMARKS
LINCOLN        CLOUDY    71  68  90 S3        30.18R
OMAHA EPPLEY   PTSUNNY   72  67  84 S7        30.18R
BEATRICE       PTSUNNY   69  68  98 E3        30.19R
FALLS CITY     CLOUDY    71  69  93 CALM      30.17R
NEBRASKA CITY  CLOUDY    69  69 100 CALM      30.19R
PLATTSMOUTH    MOSUNNY   69  68  98 CALM      30.19R
$$

NEZ044-045-051>053-067-291400-
OMAHA AREA

CITY           SKY/WX    TMP DP  RH WIND       PRES   REMARKS
OMAHA EPPLEY   PTSUNNY   72  67  84 S7        30.18R
BLAIR          MOSUNNY   69  68  95 S5        30.18R
FREMONT        CLOUDY    70  68  93 SE7       30.18R
MILLARD        PTSUNNY   71  68  90 SE6       30.18R
OFFUTT AFB     CLOUDY    70  69  98 SE3       30.18R
PLATTSMOUTH    MOSUNNY   69  68  98 CALM      30.19R
WAHOO          FAIR      68  67  96 SE6       30.17S
$$




USA.gov is the U.S. government's official web portal to all federal, state and local government web resources and services.